Weather History for KLHW - February, 2014

Change the Weather History Date:

Wednesday, February 5, 2014

  Actual Average Record
Temperature  
Mean Temperature 64 °F -  
Max Temperature 78 °F 63 °F 81 °F (2008)
Min Temperature 48 °F 39 °F 20 °F (1970)
Growing Degree Days 14 (Base 50)    
Moisture  
Dew Point 58 °F    
Average Humidity 95    
Maximum Humidity 100    
Minimum Humidity 50    
Precipitation  
Precipitation 0.14 in - - ()
Sea Level Pressure  
Sea Level Pressure 29.99 in    
Wind  
Wind Speed 3 mph (SSW)    
Max Wind Speed 16 mph    
Max Gust Speed 29 mph    
Visibility 5 miles    
Events Fog , Rain    
Averages and records for this station are not official NWS values.
T = Trace of Precipitation, MM = Missing Value Source: NWS Daily Summary

Daily Weather History Graph

Daily Weather History Graph

Search for Another Location

Airport or City:

Trip Planner

Search our weather history database for the weather conditions in past years. The results will help you decide how hot, cold, wet, or windy it might be!

Date:

Astronomy

Feb. 05, 2014 Rise Set
Actual Time 7:16 AM EST 6:04 PM EST
Civil Twilight 6:51 AM EST 6:29 PM EST
Nautical Twilight 6:22 AM EST 6:58 PM EST
Astronomical Twilight 5:53 AM EST 7:27 PM EST
Moon 10:56 AM EST (2/5) No Moon Set
Length of Visible Light 11h 38m
Length of Day
10h 47m
Waxing Crescent, 39% of the Moon is Illuminated
Feb 5
Waxing Crescent
Feb 6
First Quarter
Feb 14
Full
Feb 22
Last Quarter
Mar 1
New

Hourly Weather History & Observations

Time (EST) Temp. Dew Point Humidity Pressure Visibility Wind Dir Wind Speed Gust Speed Precip Events Conditions
12:18 AM 51.8 °F 51.8 °F 100% 30.04 in 1.2 mi Calm Calm - N/A   Overcast
12:23 AM 51.8 °F 51.8 °F 100% 30.04 in 1.0 mi Calm Calm - N/A   Mist
12:28 AM 51.8 °F 51.8 °F 100% 30.04 in 1.2 mi East 2.3 mph - N/A   Overcast
12:33 AM 51.8 °F 51.8 °F 100% 30.03 in 1.2 mi ESE 3.5 mph - N/A   Overcast
12:50 AM 51.8 °F 51.8 °F 100% 30.03 in 1.2 mi East 2.3 mph - N/A Rain Light Rain
12:58 AM 51.8 °F 51.8 °F 100% 30.05 in 1.2 mi Calm Calm - 0.01 in Rain Light Rain
1:08 AM 51.8 °F 51.8 °F 100% 30.03 in 2.0 mi Calm Calm - N/A Rain Light Rain
1:11 AM 51.8 °F 51.8 °F 100% 30.04 in 2.0 mi Calm Calm - N/A   Overcast
1:16 AM 51.8 °F 51.8 °F 100% 30.04 in 1.8 mi Calm Calm - N/A   Overcast
1:58 AM 52.0 °F 52.0 °F 100% 30.04 in 1.2 mi Calm Calm - 0.00 in   Overcast
2:03 AM 51.8 °F 51.8 °F 100% 30.03 in 1.2 mi Calm Calm - N/A   Overcast
2:08 AM 51.8 °F 51.8 °F 100% 30.03 in 1.0 mi Calm Calm - N/A   Mist
2:33 AM 51.8 °F 51.8 °F 100% 30.02 in 0.8 mi Calm Calm - N/A   Mist
2:58 AM 52.2 °F 52.2 °F 100% 30.01 in 0.8 mi ESE 3.5 mph - N/A   Mist
3:03 AM 51.8 °F 51.8 °F 100% 30.00 in 1.0 mi Calm Calm - N/A   Mist
3:13 AM 51.8 °F 51.8 °F 100% 30.01 in 1.2 mi Calm Calm - N/A   Overcast
3:23 AM 51.8 °F 51.8 °F 100% 30.00 in 1.0 mi Calm Calm - N/A   Mist
3:28 AM 51.8 °F 51.8 °F 100% 30.00 in 0.8 mi Calm Calm - N/A   Mist
3:58 AM 52.0 °F 52.0 °F 100% 30.00 in 0.5 mi Calm Calm - N/A Fog Fog
4:58 AM 52.2 °F 52.2 °F 100% 29.99 in 0.5 mi ESE 3.5 mph - 0.01 in Fog Fog
5:13 AM 51.8 °F 51.8 °F 100% 29.98 in 1.0 mi Calm Calm - N/A   Mist
5:18 AM 51.8 °F 51.8 °F 100% 29.98 in 1.2 mi East 2.3 mph - N/A   Overcast
5:28 AM 51.8 °F 51.8 °F 100% 29.98 in 2.0 mi Calm Calm - N/A   Overcast
5:33 AM 51.8 °F 51.8 °F 100% 29.99 in 3.0 mi Calm Calm - N/A   Overcast
5:58 AM 52.9 °F 52.9 °F 100% 29.99 in 2.5 mi East 2.3 mph - N/A   Overcast
6:38 AM 53.6 °F 53.6 °F 100% 29.96 in 3.0 mi SSE 5.8 mph - N/A   Overcast
6:58 AM 54.3 °F 54.3 °F 100% 29.99 in 5.0 mi SSW 3.5 mph - N/A   Overcast
7:13 AM 55.4 °F 55.4 °F 100% 29.98 in 5.0 mi Calm Calm - N/A   Overcast
7:32 AM 55.4 °F 55.4 °F 100% 29.99 in 5.0 mi Calm Calm - N/A Rain Light Rain
7:43 AM 55.4 °F 55.4 °F 100% 29.98 in 4.0 mi SSE 3.5 mph - N/A   Overcast
7:53 AM 55.4 °F 55.4 °F 100% 29.97 in 5.0 mi SSE 4.6 mph - N/A   Overcast
7:58 AM 56.3 °F 56.3 °F 100% 29.98 in 6.0 mi Variable 1.2 mph - 0.00 in   Overcast
8:13 AM 57.2 °F 57.2 °F 100% 29.98 in 7.0 mi South 3.5 mph - N/A   Overcast
8:23 AM 59.0 °F 59.0 °F 100% 29.96 in 7.0 mi South 6.9 mph - N/A   Overcast
8:28 AM 60.8 °F 60.8 °F 100% 29.96 in 8.0 mi South 6.9 mph - N/A   Overcast
8:58 AM 63.5 °F 63.5 °F 100% 29.98 in 9.0 mi South 6.9 mph - N/A   Overcast
9:28 AM 64.4 °F 64.4 °F 100% 29.97 in 10.0 mi SSW 5.8 mph - N/A   Overcast
9:50 AM 66.2 °F 66.2 °F 100% 29.97 in 4.0 mi South 8.1 mph - N/A Rain Light Rain
9:55 AM 66.2 °F 66.2 °F 100% 29.97 in 2.0 mi SSW 8.1 mph - N/A Rain Heavy Rain
9:58 AM 66.0 °F 66.0 °F 100% 29.98 in 2.0 mi SSW 5.8 mph - 0.06 in Rain Light Rain
10:03 AM 66.2 °F 66.2 °F 100% 29.97 in 6.0 mi SW 6.9 mph - N/A Rain Light Rain
10:05 AM 66.2 °F 66.2 °F 100% 29.98 in 10.0 mi SSW 6.9 mph - N/A   Mostly Cloudy
10:10 AM 68.0 °F 68.0 °F 100% 29.98 in 10.0 mi SSW 4.6 mph - N/A   Overcast
10:58 AM 70.0 °F 70.0 °F 100% 29.97 in 10.0 mi SSW 11.5 mph - 0.00 in   Overcast
11:23 AM 71.6 °F 71.6 °F 100% 29.95 in 10.0 mi SSW 8.1 mph 19.6 mph N/A   Overcast
11:37 AM 71.6 °F 71.6 °F 100% 29.95 in 3.0 mi West 16.1 mph 28.8 mph N/A Rain Light Rain
11:42 AM 69.8 °F 69.8 °F 100% 29.95 in 2.5 mi West 11.5 mph 28.8 mph N/A Rain Light Rain
11:47 AM 68.0 °F 68.0 °F 100% 29.95 in 7.0 mi West 10.4 mph - N/A Rain Light Rain
11:52 AM 68.0 °F 68.0 °F 100% 29.95 in 10.0 mi WSW 11.5 mph - N/A Rain Light Rain
11:53 AM 68.0 °F 68.0 °F 100% 29.96 in 10.0 mi WSW 12.7 mph - N/A   Overcast
11:57 AM 68.0 °F 68.0 °F 100% 29.96 in 10.0 mi WSW 11.5 mph - N/A Rain Light Rain
11:58 AM 68.0 °F 68.0 °F 100% 29.97 in 10.0 mi West 10.4 mph - 0.04 in Rain Light Rain
12:31 PM 66.2 °F 66.2 °F 100% 29.93 in 10.0 mi SW 8.1 mph - N/A   Mostly Cloudy
12:58 PM 69.1 °F 69.1 °F 100% 29.93 in 10.0 mi SW 8.1 mph - 0.02 in   Partly Cloudy
1:58 PM 75.7 °F 70.7 °F 84% 29.91 in 10.0 mi WSW 12.7 mph - N/A   Partly Cloudy
2:58 PM 78.1 °F 68.7 °F 73% 29.91 in 10.0 mi WSW 16.1 mph 19.6 mph N/A   Mostly Cloudy
3:58 PM 77.9 °F 66.2 °F 67% 29.91 in 10.0 mi WSW 12.7 mph - N/A   Clear
4:58 PM 76.8 °F 57.6 °F 51% 29.92 in 10.0 mi West 12.7 mph - N/A   Clear
5:58 PM 72.7 °F 53.2 °F 50% 29.95 in 10.0 mi West 8.1 mph - N/A   Clear
8:58 PM 61.2 °F 48.2 °F 62% 30.03 in 10.0 mi WNW 8.1 mph - N/A   Clear
9:58 PM 57.4 °F 43.9 °F 61% 30.05 in 10.0 mi WNW 11.5 mph - N/A   Clear
10:58 PM 53.2 °F 43.5 °F 70% 30.09 in 10.0 mi WNW 10.4 mph 20.7 mph N/A   Clear
11:58 PM 48.6 °F 38.7 °F 69% 30.12 in 10.0 mi WNW 13.8 mph 25.3 mph N/A   Clear